Regional Weather Roundup
Issued by NWS

Home | Current Version | Previous Version | Text Only | Print | Product List | Glossary Off
Versions: 1 2 3 4 5 6 7 8 9 10 11 12 13 14 15 16 17 18 19 20 21 22 23 24 25 26 27 28 29 30 31 32 33 34 35 36 37 38 39 40 41 42 43 44 45 46 47 48 49 50

670
ASUS43 KLMK 272302
RWRKY
KENTUCKY REGIONAL WEATHER ROUNDUP
NATIONAL WEATHER SERVICE LOUISVILLE KY
700 PM EDT THU APR 27 2017

NOTE "FAIR" INDICATES FEW OR NO CLOUDS BELOW 12,000 FEET
WITH NO SIGNIFICANT WEATHER AND/OR OBSTRUCTIONS TO VISIBILITY.

KYZ001>023-026-027-061>063-070>075-280000-
WESTERN AND SOUTH CENTRAL KENTUCKY

CITY           SKY/WX    TMP DP  RH WIND       PRES   REMARKS
PADUCAH        SUNNY     62  47  57 VRB5      29.80S
HENDERSON      PTSUNNY   58  47  66 S5        29.83F
OWENSBORO      PTSUNNY   60  48  64 W9        29.83F
HOPKINSVILLE   MOSUNNY   63  49  60 S5        29.83R
BOWLING GREEN  CLOUDY    64  51  62 W7        29.84S
GLASGOW        NOT AVBL
$$

KYZ024-025-028>034-038-045-046-053-280000-
NORTH CENTRAL KENTUCKY

CITY           SKY/WX    TMP DP  RH WIND       PRES   REMARKS
LOUISVILLE/SDF PTSUNNY   62  48  60 W10       29.83R
LOUISVILLE/LOU PTSUNNY   62  48  60 SW10G18   29.84R
FORT KNOX      CLOUDY    60  47  64 W9        29.82F
$$

KYZ035>037-039>044-047>052-055>060-089>105-280000-
NORTHEAST KENTUCKY

CITY           SKY/WX    TMP DP  RH WIND       PRES   REMARKS
LEXINGTON      SUNNY     65  48  54 W13       29.83R
COVINGTON      PTSUNNY   62  47  57 W14       29.81R
FRANKFORT      MOSUNNY   63  46  54 W12       29.82R
$$

KYZ054-064>069-076>088-106>120-280000-
SOUTHEAST KENTUCKY

CITY           SKY/WX    TMP DP  RH WIND       PRES   REMARKS
JACKSON        MOSUNNY   73  54  51 W12G21    29.79R
LONDON         MOSUNNY   73  50  44 W15       29.81R
SOMERSET       NOT AVBL
MIDDLESBORO    PTSUNNY   76  61  60 S9        29.80R
MONTICELLO     PTCLDY    70  52  52 W13G22    29.85R
$$





USA.gov is the U.S. government's official web portal to all federal, state and local government web resources and services.